HAZ5836 ZBLA-ZSPD

Flight info

Callsign HAZ5836
Flight time N/A
Altitude 35100
Route HLD B451 HRB/K0837S1100 A588 BIDIB/K0843S1070 A345 DDG/K0841S1100 DCT BIGBU DCT DONVO/K0843S1130 A326 IKADI/K0859S1100 W113 SOSMA/K0852S1130 W108 MATNU W115 PINOT
Aircraft A320/M-SDE3FGHIRWY/LB1

Departure

Time N/A
Airport Hulunbuir Hailar Airport (ZBLA)

Arrival

Time 2026-05-05 08:30
Airport Shanghai Pudong International Airport (ZSPD)
Time Latitude Longitude Altitude Speed Heading
2026-05-05 06:19 45.46553 126.22340 34724 ft 440 kts 198°
2026-05-05 06:19 45.40493 126.20967 34730 ft 441 kts 198°
2026-05-05 06:20 45.34459 126.19613 34737 ft 442 kts 198°
2026-05-05 06:20 45.28380 126.18246 34741 ft 442 kts 198°
2026-05-05 06:21 45.22299 126.16877 34721 ft 443 kts 198°
2026-05-05 06:21 45.16210 126.15512 34734 ft 443 kts 198°
2026-05-05 06:22 45.10153 126.14161 34727 ft 444 kts 198°
2026-05-05 06:22 45.04042 126.12799 34734 ft 445 kts 198°
2026-05-05 06:23 44.97924 126.11439 34723 ft 445 kts 198°
2026-05-05 06:23 44.91796 126.10072 34734 ft 446 kts 198°
2026-05-05 06:24 44.85664 126.08708 34744 ft 446 kts 198°
2026-05-05 06:24 44.79568 126.07357 34732 ft 447 kts 197°
2026-05-05 06:25 44.73420 126.06011 34739 ft 447 kts 197°
2026-05-05 06:25 44.67266 126.04660 34745 ft 448 kts 197°
2026-05-05 06:26 44.61155 126.03309 34751 ft 448 kts 197°
2026-05-05 06:26 44.55000 126.01944 34745 ft 448 kts 197°
2026-05-05 06:27 44.45756 125.99925 34761 ft 448 kts 197°
2026-05-05 06:28 44.39591 125.98583 34734 ft 448 kts 197°
2026-05-05 06:28 44.33426 125.97234 34737 ft 449 kts 197°
2026-05-05 06:29 44.27298 125.95882 34749 ft 449 kts 197°
2026-05-05 06:29 44.21127 125.94514 34751 ft 449 kts 197°
2026-05-05 06:30 44.14951 125.93164 34728 ft 449 kts 196°
2026-05-05 06:30 44.08773 125.91831 34741 ft 449 kts 196°
2026-05-05 06:31 44.02637 125.90502 34731 ft 449 kts 196°
2026-05-05 06:31 43.96465 125.89158 34749 ft 449 kts 196°
2026-05-05 06:32 43.90300 125.87846 34748 ft 448 kts 195°
2026-05-05 06:32 43.84140 125.86571 34761 ft 447 kts 195°
2026-05-05 06:33 43.78089 125.85073 34763 ft 439 kts 204°
2026-05-05 06:33 43.72580 125.81791 34743 ft 428 kts 214°
2026-05-05 06:34 43.67301 125.77992 34750 ft 428 kts 214°
2026-05-05 06:34 43.62015 125.74218 34755 ft 428 kts 213°
2026-05-05 06:35 43.56757 125.70483 34737 ft 428 kts 213°
2026-05-05 06:35 43.51469 125.66719 34740 ft 428 kts 213°
2026-05-05 06:36 43.46177 125.62964 34752 ft 428 kts 213°
2026-05-05 06:36 43.40881 125.59213 34762 ft 428 kts 213°
2026-05-05 06:37 43.35617 125.55499 34774 ft 428 kts 213°
2026-05-05 06:37 43.30321 125.51764 34773 ft 428 kts 213°
2026-05-05 06:38 43.25024 125.48040 34774 ft 428 kts 213°
2026-05-05 06:38 43.19722 125.44321 34760 ft 428 kts 213°
2026-05-05 06:39 43.14419 125.40597 34769 ft 429 kts 213°
2026-05-05 06:39 43.09145 125.36906 34776 ft 429 kts 213°
2026-05-05 06:40 43.03828 125.33201 34758 ft 429 kts 213°
2026-05-05 06:40 42.98513 125.29490 34765 ft 429 kts 213°
2026-05-05 06:41 42.93196 125.25785 34772 ft 430 kts 213°
2026-05-05 06:41 42.87897 125.22114 34775 ft 430 kts 213°
2026-05-05 06:42 42.82559 125.18423 34773 ft 430 kts 212°
2026-05-05 06:42 42.77229 125.14699 34786 ft 431 kts 213°
2026-05-05 06:43 42.71909 125.10951 34806 ft 431 kts 213°
2026-05-05 06:43 42.66619 125.07228 34783 ft 431 kts 212°
2026-05-05 06:44 42.61277 125.03491 34800 ft 433 kts 212°
2026-05-05 06:44 42.55918 124.99762 34808 ft 433 kts 212°
2026-05-05 06:45 42.50557 124.96026 34802 ft 433 kts 212°
2026-05-05 06:45 42.45225 124.92320 34806 ft 434 kts 212°
2026-05-05 06:46 42.39845 124.88591 34810 ft 435 kts 212°
2026-05-05 06:46 42.34452 124.84856 34808 ft 435 kts 212°
2026-05-05 06:47 42.29054 124.81119 34815 ft 436 kts 212°
2026-05-05 06:47 42.23682 124.77407 34823 ft 437 kts 212°
2026-05-05 06:48 42.18264 124.73678 34821 ft 438 kts 212°
2026-05-05 06:48 42.12836 124.69959 34843 ft 438 kts 212°
2026-05-05 06:49 42.07440 124.66260 34854 ft 438 kts 212°
2026-05-05 06:49 42.02012 124.62536 34863 ft 438 kts 212°
2026-05-05 06:50 41.96588 124.58806 34852 ft 438 kts 213°
2026-05-05 06:50 41.91284 124.54811 34858 ft 436 kts 215°
2026-05-05 06:51 41.86045 124.50692 34874 ft 436 kts 215°
2026-05-05 06:51 41.80824 124.46652 34866 ft 436 kts 214°
2026-05-05 06:52 41.75540 124.42643 34876 ft 437 kts 214°
2026-05-05 06:52 41.70250 124.38646 34872 ft 436 kts 214°
2026-05-05 06:53 41.64968 124.34646 34888 ft 436 kts 214°
2026-05-05 06:53 41.59725 124.30680 34899 ft 436 kts 214°
2026-05-05 06:54 41.54447 124.26690 34898 ft 436 kts 214°
2026-05-05 06:54 41.49163 124.22711 34893 ft 436 kts 214°
2026-05-05 06:55 41.43823 124.18851 34895 ft 440 kts 207°
2026-05-05 06:55 41.37891 124.16831 34914 ft 451 kts 189°
2026-05-05 06:56 41.31575 124.17098 34894 ft 456 kts 180°
2026-05-05 06:56 41.25232 124.17635 34914 ft 457 kts 181°
2026-05-05 06:57 41.18883 124.18167 34927 ft 458 kts 180°
2026-05-05 06:57 41.12562 124.18697 34938 ft 458 kts 181°
2026-05-05 06:58 41.06191 124.19238 34940 ft 459 kts 180°
2026-05-05 06:58 40.99817 124.19851 34959 ft 460 kts 180°
2026-05-05 06:59 40.93437 124.20609 34966 ft 461 kts 179°
2026-05-05 06:59 40.87090 124.21389 34980 ft 461 kts 178°
2026-05-05 07:00 40.80699 124.22136 34997 ft 461 kts 179°
2026-05-05 07:00 40.74300 124.22854 34998 ft 461 kts 179°
2026-05-05 07:01 40.67900 124.23573 34989 ft 462 kts 178°
2026-05-05 07:01 40.61538 124.24288 35013 ft 462 kts 179°
2026-05-05 07:02 40.55124 124.25011 35015 ft 463 kts 179°
2026-05-05 07:02 40.48706 124.25740 35022 ft 463 kts 178°
2026-05-05 07:03 40.42330 124.26458 35023 ft 463 kts 178°
2026-05-05 07:03 40.35903 124.27181 35038 ft 463 kts 178°
2026-05-05 07:04 40.29512 124.27894 35033 ft 463 kts 178°
2026-05-05 07:04 40.23128 124.27680 35036 ft 457 kts 193°
2026-05-05 07:05 40.16907 124.26087 35041 ft 456 kts 194°
2026-05-05 07:05 40.10677 124.24488 35033 ft 457 kts 194°
2026-05-05 07:06 40.04415 124.22893 35041 ft 458 kts 193°
2026-05-05 07:06 39.98194 124.21319 35053 ft 458 kts 194°
2026-05-05 07:07 39.91933 124.19729 35044 ft 458 kts 194°
2026-05-05 07:07 39.85668 124.18136 35052 ft 459 kts 193°
2026-05-05 07:08 39.79434 124.16557 35052 ft 460 kts 193°
2026-05-05 07:08 39.73156 124.14969 35052 ft 460 kts 193°
2026-05-05 07:09 39.66872 124.13385 35057 ft 460 kts 193°
2026-05-05 07:09 39.60586 124.11809 35052 ft 460 kts 193°
2026-05-05 07:10 39.54340 124.10244 35047 ft 460 kts 193°
2026-05-05 07:10 39.48049 124.08665 35050 ft 461 kts 193°
2026-05-05 07:11 39.41752 124.07090 35046 ft 461 kts 193°
2026-05-05 07:11 39.35447 124.05515 35044 ft 462 kts 193°
2026-05-05 07:12 39.29180 124.03948 35045 ft 462 kts 193°
2026-05-05 07:12 39.22862 124.02374 35037 ft 463 kts 193°
2026-05-05 07:13 39.16523 124.00804 35035 ft 464 kts 193°
2026-05-05 07:13 39.10215 123.99239 35041 ft 464 kts 193°
2026-05-05 07:14 39.03879 123.97674 35050 ft 465 kts 193°
2026-05-05 07:14 38.97524 123.96104 35045 ft 465 kts 192°
2026-05-05 07:15 38.91163 123.94531 35048 ft 465 kts 193°
2026-05-05 07:15 38.84808 123.92961 35053 ft 465 kts 193°
2026-05-05 07:16 38.78490 123.91409 35052 ft 466 kts 193°
2026-05-05 07:16 38.72120 123.89853 35046 ft 466 kts 193°
2026-05-05 07:17 38.65893 123.87679 35059 ft 463 kts 204°
2026-05-05 07:17 38.59913 123.84641 35065 ft 462 kts 204°
2026-05-05 07:18 38.53968 123.81650 35051 ft 463 kts 203°
2026-05-05 07:18 38.47970 123.78637 35051 ft 463 kts 204°
2026-05-05 07:19 38.41968 123.75618 35047 ft 464 kts 203°
2026-05-05 07:19 38.35959 123.72602 35050 ft 464 kts 203°
2026-05-05 07:20 38.29954 123.69594 35068 ft 464 kts 204°
2026-05-05 07:20 38.23985 123.66616 35058 ft 463 kts 203°
2026-05-05 07:21 38.17975 123.63621 35061 ft 463 kts 203°
2026-05-05 07:21 38.11971 123.60634 35068 ft 465 kts 203°
2026-05-05 07:22 38.05954 123.57647 35066 ft 464 kts 204°
2026-05-05 07:22 37.99970 123.54675 35072 ft 466 kts 204°
2026-05-05 07:23 37.93925 123.51673 35071 ft 467 kts 203°
2026-05-05 07:23 37.87896 123.48691 35076 ft 464 kts 203°
2026-05-05 07:24 37.81882 123.45725 35068 ft 464 kts 203°
2026-05-05 07:24 37.75923 123.42783 35069 ft 462 kts 203°
2026-05-05 07:25 37.69934 123.39835 35068 ft 462 kts 203°
2026-05-05 07:25 37.63940 123.36895 35070 ft 463 kts 203°
2026-05-05 07:26 37.57870 123.34184 35084 ft 465 kts 194°
2026-05-05 07:26 37.51444 123.33464 35081 ft 467 kts 179°
2026-05-05 07:27 37.44992 123.33674 35088 ft 466 kts 180°
2026-05-05 07:27 37.38511 123.33858 35079 ft 466 kts 180°
2026-05-05 07:28 37.32027 123.34028 35080 ft 466 kts 180°
2026-05-05 07:28 37.25557 123.34208 35089 ft 465 kts 180°
2026-05-05 07:29 37.19089 123.34403 35086 ft 465 kts 180°
2026-05-05 07:29 37.12664 123.34584 35089 ft 465 kts 180°
2026-05-05 07:30 37.06198 123.34766 35096 ft 464 kts 181°
2026-05-05 07:30 36.96523 123.35039 35095 ft 463 kts 180°
2026-05-05 07:31 36.90080 123.35218 35095 ft 463 kts 181°
2026-05-05 07:31 36.83691 123.35395 35099 ft 462 kts 181°
2026-05-05 07:32 36.77261 123.35571 35104 ft 462 kts 180°
2026-05-05 07:32 36.70841 123.35755 35097 ft 461 kts 181°
2026-05-05 07:33 36.64434 123.35931 35101 ft 460 kts 181°
2026-05-05 07:33 36.58082 123.36109 35103 ft 459 kts 181°
2026-05-05 07:34 36.51693 123.36289 35097 ft 459 kts 181°
2026-05-05 07:34 36.45312 123.36462 35107 ft 458 kts 181°
2026-05-05 07:35 36.38938 123.36637 35110 ft 458 kts 181°
2026-05-05 07:35 36.32611 123.36816 35108 ft 458 kts 181°
2026-05-05 07:36 36.26242 123.36994 35111 ft 457 kts 181°
2026-05-05 07:36 36.19886 123.37179 35125 ft 456 kts 181°
2026-05-05 07:37 36.13568 123.37363 35123 ft 456 kts 181°
2026-05-05 07:37 36.07229 123.37546 35123 ft 455 kts 181°
2026-05-05 07:38 36.00894 123.37734 35118 ft 455 kts 181°
2026-05-05 07:38 35.94583 123.37916 35116 ft 455 kts 181°
2026-05-05 07:39 35.88250 123.38089 35112 ft 455 kts 182°
2026-05-05 07:39 35.81964 123.38262 35116 ft 455 kts 182°
2026-05-05 07:40 35.75637 123.38434 35116 ft 455 kts 182°
2026-05-05 07:40 35.69318 123.38606 35119 ft 455 kts 182°
2026-05-05 07:41 35.62994 123.38788 35111 ft 454 kts 182°
2026-05-05 07:41 35.56718 123.38962 35126 ft 454 kts 182°
2026-05-05 07:42 35.50402 123.39138 35112 ft 454 kts 182°
2026-05-05 07:42 35.44088 123.39316 35102 ft 454 kts 182°
2026-05-05 07:43 35.37773 123.39494 35113 ft 454 kts 182°
2026-05-05 07:43 35.31501 123.39673 35114 ft 454 kts 182°
2026-05-05 07:44 35.25190 123.39839 35112 ft 454 kts 182°
2026-05-05 07:44 35.18901 123.40006 35113 ft 453 kts 182°
2026-05-05 07:45 35.12595 123.40174 35118 ft 453 kts 182°
2026-05-05 07:45 35.06289 123.40352 35115 ft 453 kts 182°
2026-05-05 07:46 34.99983 123.40532 35113 ft 453 kts 182°
2026-05-05 07:46 34.93697 123.40922 35125 ft 454 kts 180°
2026-05-05 07:47 34.87396 123.41538 35127 ft 454 kts 179°
2026-05-05 07:47 34.81145 123.42148 35121 ft 454 kts 180°
2026-05-05 07:48 34.74848 123.42699 35126 ft 453 kts 180°
2026-05-05 07:48 34.68555 123.43229 35129 ft 453 kts 180°
2026-05-05 07:49 34.62261 123.43764 35131 ft 453 kts 180°
2026-05-05 07:49 34.56012 123.44303 35129 ft 453 kts 180°
2026-05-05 07:50 34.49713 123.44852 35136 ft 453 kts 180°
2026-05-05 07:50 34.43433 123.45399 35144 ft 452 kts 180°
2026-05-05 07:51 34.37197 123.45937 35137 ft 452 kts 180°
2026-05-05 07:51 34.30923 123.46480 35147 ft 452 kts 180°
2026-05-05 07:52 34.27794 123.46553 35144 ft 446 kts 191°
2026-05-05 07:52 34.24801 123.45787 35147 ft 438 kts 201°
2026-05-05 07:52 34.18969 123.43647 35143 ft 438 kts 201°
2026-05-05 07:53 34.13175 123.41488 35136 ft 438 kts 201°
2026-05-05 07:53 34.07354 123.39319 35150 ft 438 kts 201°
2026-05-05 07:54 34.01559 123.37167 35154 ft 438 kts 201°
2026-05-05 07:54 33.95737 123.35012 35152 ft 438 kts 201°
2026-05-05 07:55 33.89910 123.32858 35158 ft 438 kts 201°
2026-05-05 07:55 33.84086 123.30707 35156 ft 437 kts 201°
2026-05-05 07:56 33.78306 123.28579 35154 ft 437 kts 201°
2026-05-05 07:56 33.72483 123.26437 35142 ft 437 kts 201°
2026-05-05 07:57 33.66702 123.24320 35143 ft 436 kts 201°
2026-05-05 07:57 33.60896 123.22187 35148 ft 436 kts 201°
2026-05-05 07:58 33.55093 123.20057 35139 ft 436 kts 201°
2026-05-05 07:58 33.49320 123.17938 35158 ft 434 kts 201°
2026-05-05 07:59 33.43561 123.15824 35164 ft 433 kts 201°
2026-05-05 07:59 33.37783 123.13726 35145 ft 437 kts 201°
2026-05-05 08:00 33.31977 123.11627 35146 ft 435 kts 201°
2026-05-05 08:00 33.26199 123.09521 35149 ft 434 kts 201°
2026-05-05 08:01 33.20457 123.07425 35149 ft 434 kts 201°
2026-05-05 08:01 33.14675 123.05321 35139 ft 433 kts 201°
2026-05-05 08:02 33.08916 123.03233 35151 ft 432 kts 201°
2026-05-05 08:02 33.03206 123.01169 35156 ft 431 kts 201°
2026-05-05 08:03 32.97469 122.99095 35157 ft 431 kts 201°
2026-05-05 08:03 32.91733 122.97030 35156 ft 430 kts 202°
2026-05-05 08:04 32.86007 122.94968 35163 ft 430 kts 202°
2026-05-05 08:04 32.80325 122.92919 35159 ft 430 kts 202°
2026-05-05 08:05 32.74607 122.90865 35141 ft 429 kts 202°
2026-05-05 08:05 32.68897 122.88826 35178 ft 428 kts 200°
2026-05-05 08:06 32.63194 122.86781 35162 ft 428 kts 202°
2026-05-05 08:06 32.57523 122.84744 35158 ft 429 kts 202°
2026-05-05 08:07 32.54664 122.83719 35036 ft 429 kts 202°
2026-05-05 08:07 32.51816 122.82702 34796 ft 426 kts 202°
2026-05-05 08:07 32.48977 122.81692 34567 ft 426 kts 202°
2026-05-05 08:07 32.46144 122.80684 34342 ft 425 kts 202°
2026-05-05 08:08 32.43311 122.79673 34117 ft 425 kts 202°
2026-05-05 08:08 32.40480 122.78666 33864 ft 425 kts 202°
2026-05-05 08:08 32.37645 122.77655 33598 ft 426 kts 202°
2026-05-05 08:08 32.34803 122.76641 33309 ft 427 kts 202°
2026-05-05 08:09 32.32001 122.75640 33050 ft 425 kts 202°
2026-05-05 08:09 32.29167 122.74630 32795 ft 425 kts 202°
2026-05-05 08:09 32.26336 122.73619 32535 ft 426 kts 202°
2026-05-05 08:09 32.23491 122.72603 32275 ft 427 kts 202°
2026-05-05 08:10 32.20628 122.71583 32033 ft 428 kts 201°
2026-05-05 08:10 32.17806 122.70581 31784 ft 430 kts 201°
2026-05-05 08:10 32.14929 122.69566 31537 ft 431 kts 201°
2026-05-05 08:10 32.12048 122.68551 31274 ft 430 kts 202°
2026-05-05 08:11 32.09222 122.67553 30906 ft 429 kts 202°
2026-05-05 08:11 32.06351 122.66536 30018 ft 433 kts 201°
2026-05-05 08:11 32.03450 122.65505 28997 ft 437 kts 201°
2026-05-05 08:11 32.00545 122.64476 28057 ft 439 kts 201°
2026-05-05 08:12 31.97605 122.63441 27129 ft 440 kts 200°
2026-05-05 08:12 31.94682 122.62412 26097 ft 445 kts 200°
2026-05-05 08:12 31.91693 122.61358 25022 ft 451 kts 199°
2026-05-05 08:12 31.88666 122.60291 24036 ft 454 kts 199°
2026-05-05 08:13 31.85657 122.59232 23060 ft 456 kts 199°
2026-05-05 08:13 31.82599 122.58156 22309 ft 452 kts 199°
2026-05-05 08:13 31.79601 122.57103 21581 ft 448 kts 199°
2026-05-05 08:13 31.76665 122.56071 20866 ft 445 kts 199°
2026-05-05 08:14 31.73702 122.55031 20156 ft 443 kts 199°
2026-05-05 08:14 31.70743 122.53995 19438 ft 440 kts 199°
2026-05-05 08:14 31.67856 122.52987 18766 ft 438 kts 199°
2026-05-05 08:14 31.64938 122.51969 18051 ft 436 kts 199°
2026-05-05 08:15 31.62050 122.50961 17362 ft 433 kts 199°
2026-05-05 08:15 31.59179 122.49956 16724 ft 429 kts 199°
2026-05-05 08:15 31.56336 122.48961 16097 ft 425 kts 199°
2026-05-05 08:15 31.53517 122.47973 15481 ft 421 kts 199°
2026-05-05 08:16 31.50760 122.46865 14885 ft 415 kts 207°
2026-05-05 08:16 31.48317 122.45136 14308 ft 407 kts 220°
2026-05-05 08:16 31.46315 122.42823 13728 ft 401 kts 233°
2026-05-05 08:16 31.44869 122.40124 13145 ft 394 kts 246°
2026-05-05 08:17 31.43977 122.37129 12597 ft 387 kts 259°
2026-05-05 08:17 31.43535 122.34036 12051 ft 381 kts 262°
2026-05-05 08:17 31.43130 122.30980 11507 ft 377 kts 262°
2026-05-05 08:17 31.42732 122.28001 11337 ft 363 kts 262°
2026-05-05 08:18 31.42354 122.25177 11207 ft 349 kts 262°
2026-05-05 08:18 31.41986 122.22428 11083 ft 336 kts 262°
2026-05-05 08:18 31.41631 122.19780 10961 ft 323 kts 262°
2026-05-05 08:18 31.41289 122.17260 10830 ft 303 kts 262°
2026-05-05 08:19 31.40967 122.14896 10567 ft 287 kts 262°
2026-05-05 08:19 31.40655 122.12602 10240 ft 284 kts 262°
2026-05-05 08:19 31.40345 122.10325 10012 ft 283 kts 261°
2026-05-05 08:19 31.40035 122.08046 9863 ft 283 kts 262°
2026-05-05 08:20 31.39730 122.05799 9728 ft 283 kts 261°
2026-05-05 08:20 31.39420 122.03518 9594 ft 283 kts 261°
2026-05-05 08:20 31.39109 122.01239 9318 ft 286 kts 261°
2026-05-05 08:20 31.38790 121.98908 8851 ft 288 kts 261°
2026-05-05 08:21 31.38476 121.96612 8524 ft 285 kts 261°
2026-05-05 08:21 31.38161 121.94328 8097 ft 285 kts 261°
2026-05-05 08:21 31.37842 121.92008 7385 ft 289 kts 261°
2026-05-05 08:21 31.37535 121.89774 7123 ft 273 kts 260°
2026-05-05 08:22 31.37259 121.87634 6984 ft 263 kts 265°
2026-05-05 08:22 31.37558 121.85584 6858 ft 254 kts 297°
2026-05-05 08:22 31.38674 121.84051 6586 ft 248 kts 328°
2026-05-05 08:22 31.40246 121.83280 6180 ft 244 kts 341°
2026-05-05 08:23 31.41845 121.82646 5805 ft 240 kts 338°
2026-05-05 08:23 31.43160 121.81560 5531 ft 230 kts 304°
2026-05-05 08:23 31.43723 121.79856 5270 ft 225 kts 270°
2026-05-05 08:23 31.43426 121.78133 5016 ft 219 kts 244°
2026-05-05 08:24 31.42860 121.76481 4768 ft 219 kts 249°
2026-05-05 08:24 31.42344 121.74809 4498 ft 216 kts 240°
2026-05-05 08:24 31.41429 121.73452 4192 ft 211 kts 215°
2026-05-05 08:24 31.40112 121.72739 3929 ft 209 kts 197°
2026-05-05 08:25 31.38734 121.72239 3651 ft 207 kts 197°
2026-05-05 08:25 31.37357 121.71741 3386 ft 206 kts 197°
2026-05-05 08:25 31.35981 121.71263 3109 ft 206 kts 190°
2026-05-05 08:25 31.34586 121.71190 2948 ft 204 kts 172°
2026-05-05 08:26 31.33220 121.71615 2945 ft 202 kts 163°
2026-05-05 08:26 31.31884 121.72122 2938 ft 202 kts 163°
2026-05-05 08:26 31.30595 121.72611 2932 ft 202 kts 164°
2026-05-05 08:26 31.29246 121.73122 2753 ft 202 kts 164°
2026-05-05 08:27 31.27899 121.73632 2529 ft 205 kts 163°
2026-05-05 08:27 31.26556 121.74142 2258 ft 203 kts 163°
2026-05-05 08:27 31.25217 121.74649 1984 ft 200 kts 164°
2026-05-05 08:27 31.23908 121.75145 1729 ft 199 kts 163°
2026-05-05 08:28 31.22610 121.75636 1465 ft 195 kts 162°
2026-05-05 08:28 31.21328 121.76122 1224 ft 191 kts 163°
2026-05-05 08:28 31.20074 121.76596 967 ft 189 kts 164°
2026-05-05 08:28 31.18869 121.77052 742 ft 175 kts 163°
2026-05-05 08:29 31.17757 121.77473 523 ft 163 kts 161°
2026-05-05 08:29 31.16722 121.77863 319 ft 151 kts 161°
2026-05-05 08:29 31.15733 121.78238 125 ft 148 kts 162°
2026-05-05 08:30 31.14050 121.78887 20 ft 87 kts 161°
2026-05-05 08:30 31.13640 121.79049 22 ft 40 kts 161°
2026-05-05 08:30 31.13507 121.79156 23 ft 19 kts 135°
2026-05-05 08:30 31.13414 121.79265 26 ft 19 kts 134°
2026-05-05 08:31 31.13320 121.79371 23 ft 19 kts 116°
2026-05-05 08:31 31.13344 121.79503 23 ft 0 kts 73°
2026-05-05 08:32 31.13349 121.79523 25 ft 10 kts 73°
2026-05-05 08:32 31.13385 121.79660 21 ft 21 kts 72°
2026-05-05 08:33 31.13430 121.79823 23 ft 21 kts 71°
2026-05-05 08:33 31.13476 121.79986 23 ft 22 kts 72°
2026-05-05 08:33 31.13517 121.80156 23 ft 22 kts 77°
2026-05-05 08:33 31.13527 121.80197 23 ft 0 kts 72°
2026-05-05 08:34 31.13530 121.80207 23 ft 4 kts 72°
2026-05-05 08:34 31.13537 121.80236 25 ft 3 kts 73°
2026-05-05 08:34 31.13539 121.80244 24 ft 0 kts 72°